Flag for Germany Weather past 2 weeks in Hannover, Lower Saxony, Germany

Now
54 °F

Sunny.


Feels Like: 52 °F
Forecast: 54 / 76 °F
Wind: 7 mph from East

Location: Hannover

Current Time: Aug 1, 2015 at 8:42:58 AM

Latest Report: Aug 1, 2015 at 8:20 AM


Visibility: 10 mi

Pressure: 30.04 "Hg

Humidity: 82%

Dew point: 48 °F

Location of HannoverLocation

Historic Weather in Hannover — Graph

°F

Hannover temperature yesterday

Maximum temperature yesterday: 64 °F (at 1:50 PM)
Minimum temperature yesterday: 48 °F (at 4:50 AM)
Average temperature yesterday: 56 °F

Past Weeks' High & Low Weather Summary

 TemperatureHumidityPressure
High90 °F (Jul 17, 3:50 PM)100% (Jul 19, 10:50 AM)30.12 "Hg (Jul 19, 10:50 AM)
Low46 °F (Aug 1, 3:20 AM)33% (Jul 17, 3:50 PM)29.47 "Hg (Jul 25, 12:50 PM)
Average64 °F75%29.84 "Hg
* Reported Jul 17 7:20 AM — Aug 1 7:20 AM, Hannover, Weather by CustomWeather, © 2015

Note: Actual official high and low records may vary slightly from our data, if they occured in-between our weather recording intervals... More about our weather records

Advertising

Hannover weather history for previous 24 hours

 ConditionsComfort  
Time TempWeatherWind HumidityBarometerVisibility
7:20 AM
Sat, Aug 1
48 °FSunny.5 mph94%30.04 "Hg10 mi
6:50 AM48 °FSunny.6 mph87%30.04 "Hg10 mi
6:20 AM46 °FClear.6 mph93%30.04 "Hg10 mi
5:50 AM46 °FClear.6 mph87%30.04 "Hg10 mi
5:20 AM46 °FClear.5 mph93%30.07 "Hg10 mi
4:50 AM48 °FClear.6 mph87%30.07 "Hg10 mi
4:20 AM48 °FClear.6 mph87%30.07 "Hg10 mi
3:50 AM46 °FClear.5 mph93%30.07 "Hg10 mi
3:20 AM46 °FClear.5 mph93%30.07 "Hg10 mi
2:50 AM48 °FClear.3 mph87%30.07 "Hg10 mi
2:20 AM48 °FClear.3 mph87%30.07 "Hg10 mi
1:50 AM48 °FClear.5 mph87%30.09 "Hg10 mi
1:20 AM50 °FClear.5 mph82%30.07 "Hg10 mi
12:50 AM50 °FClear.5 mph82%30.09 "Hg10 mi
12:20 AM50 °FClear.3 mph82%30.09 "Hg10 mi
11:50 PM
Fri, Jul 31
50 °FClear.5 mph82%30.07 "Hg10 mi
11:20 PM52 °FClear.5 mph82%30.07 "Hg10 mi
10:50 PM50 °FClear.2 mph88%30.07 "Hg10 mi
10:20 PM52 °FPassing clouds.3 mph77%30.07 "HgN/A
9:50 PM52 °FSunny.2 mph82%30.07 "Hg10 mi
9:20 PM55 °FSunny.3 mph72%30.07 "Hg10 mi
8:50 PM57 °FSunny.1 mph67%30.07 "Hg10 mi
8:20 PM59 °FSunny.3 mph68%30.07 "Hg10 mi
7:50 PM61 °FSunny.3 mph55%30.07 "Hg10 mi
7:20 PM61 °FPassing clouds.3 mph55%30.07 "HgN/A
6:50 PM64 °FSunny.8 mph46%30.07 "Hg10 mi
6:20 PM63 °FSunny.7 mph49%30.07 "Hg10 mi
5:50 PM63 °FPartly sunny.8 mph49%30.09 "HgN/A
5:20 PM63 °FPartly sunny.7 mph52%30.09 "HgN/A
4:50 PM64 °FPartly sunny.10 mph52%30.09 "HgN/A
4:20 PM63 °FPartly sunny.5 mph49%30.09 "HgN/A
3:50 PM63 °FPartly sunny.9 mph49%30.09 "HgN/A
3:20 PM64 °FPartly sunny.5 mph46%30.09 "HgN/A
2:50 PM61 °FPartly sunny.8 mph52%30.09 "HgN/A
2:20 PM64 °FPartly sunny.8 mph46%30.09 "HgN/A
1:50 PM64 °FPartly sunny.10 mph46%30.12 "HgN/A
1:20 PM63 °FPartly sunny.10 mph49%30.12 "HgN/A
12:50 PM61 °FPartly sunny.9 mph55%30.09 "HgN/A
12:20 PM61 °FPartly sunny.8 mph55%30.09 "HgN/A
11:50 AM59 °FScattered clouds.12 mph59%30.09 "HgN/A
11:20 AM61 °FPartly sunny.8 mph59%30.09 "HgN/A
10:50 AM59 °FPartly sunny.12 mph63%30.09 "HgN/A
10:20 AM57 °FScattered clouds.9 mph63%30.09 "HgN/A
9:20 AM57 °FPassing clouds.13 mph72%30.09 "HgN/A
8:50 AM55 °FScattered clouds.8 mph77%30.09 "HgN/A
8:20 AM54 °FScattered clouds.8 mph82%30.09 "HgN/A
Weather by CustomWeather, © 2015

See weather overviewHow to use our weather pages